Location: Blue Mountain Vista Observatory
(40.6992°N, 75.9422°W)
Time: 04:18:43
(UTC-04:00)

IDEFIX/ARIANE 42P - Visible Passes

Search period start: 01 November 2014 00:00
Search period end: 10 November 2014 23:00
Orbit: 786 x 804 km, 98.3° (Epoch: 31 October)

Date Brightness Start Highest point End Pass type
(mag) Time Alt. Az. Time Alt. Az. Time Alt. Az.
01 Nov 4.4 18:58:46 12° NE 18:58:46 12° NE 19:00:12 10° NE visible
01 Nov 3.8 20:39:36 32° NNW 20:39:36 32° NNW 20:42:22 10° NNW visible
02 Nov 3.7 19:11:16 30° NNE 19:11:16 30° NNE 19:14:05 10° N visible
02 Nov 5.4 20:52:06 12° NW 20:52:06 12° NW 20:52:41 10° NW visible
03 Nov 3.9 18:42:57 23° NNE 18:42:57 23° NNE 18:45:29 10° N visible
03 Nov 4.9 20:23:47 18° NW 20:23:47 18° NW 20:25:20 10° NNW visible
04 Nov 4.3 18:14:37 15° NE 18:14:37 15° NE 18:16:25 10° NNE visible
04 Nov 4.4 19:55:27 24° NNW 19:55:27 24° NNW 19:57:30 10° NNW visible
05 Nov 4.1 19:27:07 26° N 19:27:07 26° N 19:29:22 10° N visible
06 Nov 4.0 18:58:47 23° NNE 18:58:47 23° NNE 19:00:57 10° N visible
06 Nov 5.3 20:39:37 12° NW 20:39:37 12° NW 20:40:09 10° NW visible
07 Nov 4.2 18:30:27 17° NNE 18:30:27 17° NNE 18:32:11 10° NNE visible
07 Nov 4.9 20:11:17 17° NNW 20:11:17 17° NNW 20:12:33 10° NNW visible
08 Nov 4.5 18:02:07 11° NE 18:02:07 11° NE 18:02:40 10° NE visible
08 Nov 4.5 19:42:57 21° NNW 19:42:57 21° NNW 19:44:34 10° NNW visible
09 Nov 4.3 19:14:36 21° N 19:14:36 21° N 19:16:18 10° N visible
10 Nov 4.3 18:46:15 17° NNE 18:46:15 17° NNE 18:47:44 10° N visible
10 Nov 5.3 20:27:05 12° NW 20:27:05 12° NW 20:27:28 10° NNW visible
